TimeEST,TemperatureF,Dew PointF,Humidity,Sea Level PressureIn,VisibilityMPH,Wind Direction,Wind SpeedMPH,Gust SpeedMPH,PrecipitationIn,Events,Conditions,WindDirDegrees,DateUTC
12:52 AM,7.0,-7.1,53,30.14,10.0,WNW,12.7,-,N/A,,Clear,300,2013-01-03 05:52:00
2:52 AM,3.9,-9.0,55,30.15,10.0,WNW,11.5,-,N/A,,Clear,300,2013-01-03 07:52:00
3:52 AM,3.9,-9.9,53,30.13,10.0,NW,11.5,-,N/A,,Clear,310,2013-01-03 08:52:00
4:52 AM,3.9,-9.9,53,30.13,10.0,Calm,Calm,-,N/A,,Clear,0,2013-01-03 09:52:00
5:52 AM,3.9,-9.9,53,30.13,10.0,WNW,9.2,-,N/A,,Clear,300,2013-01-03 10:52:00
6:52 AM,5.0,-9.9,50,30.13,10.0,NW,5.8,-,N/A,,Clear,310,2013-01-03 11:52:00
7:52 AM,6.1,-9.9,48,30.14,10.0,WNW,11.5,-,N/A,,Clear,300,2013-01-03 12:52:00
8:52 AM,7.0,-8.0,51,30.13,10.0,WNW,15.0,-,N/A,,Clear,290,2013-01-03 13:52:00
9:52 AM,12.0,-7.1,42,30.13,10.0,West,9.2,-,N/A,,Clear,260,2013-01-03 14:52:00
10:52 AM,17.1,-5.1,37,30.12,10.0,West,10.4,-,N/A,,Clear,280,2013-01-03 15:52:00
11:52 AM,19.9,-7.1,30,30.09,10.0,NW,15.0,23.0,N/A,,Clear,310,2013-01-03 16:52:00
12:52 PM,21.9,-7.1,28,30.06,10.0,NW,11.5,-,N/A,,Clear,320,2013-01-03 17:52:00
1:52 PM,21.9,-6.0,29,30.05,10.0,WNW,11.5,-,N/A,,Clear,290,2013-01-03 18:52:00
2:52 PM,23.0,-0.9,35,30.04,10.0,WNW,12.7,-,N/A,,Mostly Cloudy,300,2013-01-03 19:52:00
3:52 PM,23.0,-0.9,35,30.04,10.0,WNW,5.8,-,N/A,,Partly Cloudy,300,2013-01-03 20:52:00
4:52 PM,19.9,-0.9,40,30.04,10.0,Calm,Calm,-,N/A,,Clear,0,2013-01-03 21:52:00
5:52 PM,15.1,1.0,54,30.04,10.0,Calm,Calm,-,N/A,,Clear,0,2013-01-03 22:52:00
6:52 PM,14.0,3.0,62,30.05,10.0,Calm,Calm,-,N/A,,Overcast,0,2013-01-03 23:52:00
7:52 PM,18.0,6.1,60,30.05,10.0,Calm,Calm,-,N/A,,Scattered Clouds,0,2013-01-04 00:52:00
8:52 PM,17.1,7.0,65,30.05,10.0,Calm,Calm,-,N/A,,Clear,0,2013-01-04 01:52:00
9:52 PM,18.0,8.1,65,30.04,10.0,Calm,Calm,-,N/A,,Partly Cloudy,0,2013-01-04 02:52:00
10:52 PM,15.1,8.1,74,30.01,10.0,Calm,Calm,-,N/A,,Partly Cloudy,0,2013-01-04 03:52:00
11:52 PM,19.0,8.1,62,29.99,10.0,Variable,3.5,-,N/A,,Partly Cloudy,0,2013-01-04 04:52:00